Year,Month,Day,Hour,Minute,Value (Times are PST for temperature in C)
2018,10,21,00,00,6.20
2018,10,21,00,01,6.30
2018,10,21,00,02,6.30
2018,10,21,00,03,6.30
2018,10,21,00,04,6.30
2018,10,21,00,05,6.30
2018,10,21,00,06,6.30
2018,10,21,00,07,6.30
2018,10,21,00,08,6.30
2018,10,21,00,09,6.30
2018,10,21,00,10,6.30
2018,10,21,00,11,6.30
2018,10,21,00,12,6.30
2018,10,21,00,13,6.30
2018,10,21,00,14,6.30
2018,10,21,00,15,6.30
2018,10,21,00,16,6.30
2018,10,21,00,17,6.30
2018,10,21,00,18,6.30
2018,10,21,00,19,6.30
2018,10,21,00,20,6.30
2018,10,21,00,21,6.30
2018,10,21,00,22,6.30
2018,10,21,00,23,6.20
2018,10,21,00,24,6.20
2018,10,21,00,25,6.20
2018,10,21,00,26,6.20
2018,10,21,00,27,6.20
2018,10,21,00,28,6.20
2018,10,21,00,29,6.20
2018,10,21,00,30,6.20
2018,10,21,00,31,6.20
2018,10,21,00,32,6.20
2018,10,21,00,33,6.20
2018,10,21,00,34,6.20
2018,10,21,00,35,6.20
2018,10,21,00,36,6.20
2018,10,21,00,37,6.20
2018,10,21,00,38,6.10
2018,10,21,00,39,6.10
2018,10,21,00,40,6.10
2018,10,21,00,41,6.10
2018,10,21,00,42,6.10
2018,10,21,00,43,6.10
2018,10,21,00,44,6.10
2018,10,21,00,45,6.10
2018,10,21,00,46,6.20
2018,10,21,00,47,6.20
2018,10,21,00,48,6.20
2018,10,21,00,49,6.20
2018,10,21,00,50,6.30
2018,10,21,00,51,6.30
2018,10,21,00,52,6.40
2018,10,21,00,53,6.40
2018,10,21,00,54,6.40
2018,10,21,00,55,6.50
2018,10,21,00,56,6.60
2018,10,21,00,57,6.60
2018,10,21,00,58,6.60
2018,10,21,00,59,6.60
2018,10,21,01,00,6.60
2018,10,21,01,01,6.70
2018,10,21,01,02,6.70
2018,10,21,01,03,6.70
2018,10,21,01,04,6.70
2018,10,21,01,05,6.70
2018,10,21,01,06,6.70
2018,10,21,01,07,6.60
2018,10,21,01,08,6.60
2018,10,21,01,09,6.60
2018,10,21,01,10,6.60
2018,10,21,01,11,6.60
2018,10,21,01,12,6.60
2018,10,21,01,13,6.40
2018,10,21,01,14,6.40
2018,10,21,01,15,6.40
2018,10,21,01,16,6.40
2018,10,21,01,17,6.40
2018,10,21,01,18,6.40
2018,10,21,01,19,6.40
2018,10,21,01,20,6.40
2018,10,21,01,21,6.40
2018,10,21,01,22,6.40
2018,10,21,01,23,6.40
2018,10,21,01,24,6.40
2018,10,21,01,25,6.40
2018,10,21,01,26,6.40
2018,10,21,01,27,6.40
2018,10,21,01,28,6.40
2018,10,21,01,29,6.40
2018,10,21,01,30,6.40
2018,10,21,01,31,6.40
2018,10,21,01,32,6.40
2018,10,21,01,33,6.30
2018,10,21,01,34,6.30
2018,10,21,01,35,6.30
2018,10,21,01,36,6.30
2018,10,21,01,37,6.20
2018,10,21,01,38,6.20
2018,10,21,01,39,6.20
2018,10,21,01,40,6.20
2018,10,21,01,41,6.20
2018,10,21,01,42,6.20
2018,10,21,01,43,6.20
2018,10,21,01,44,6.20
2018,10,21,01,45,6.20
2018,10,21,01,46,6.20
2018,10,21,01,47,6.20
2018,10,21,01,48,6.20
2018,10,21,01,49,6.20
2018,10,21,01,50,6.20
2018,10,21,01,51,6.20
2018,10,21,01,52,6.20
2018,10,21,01,53,6.10
2018,10,21,01,54,6.10
2018,10,21,01,55,6.10
2018,10,21,01,56,6.00
2018,10,21,01,57,6.00
2018,10,21,01,58,5.90
2018,10,21,01,59,5.90
2018,10,21,02,00,5.90
2018,10,21,02,01,5.80
2018,10,21,02,02,5.70
2018,10,21,02,03,5.70
2018,10,21,02,04,5.70
2018,10,21,02,05,5.70
2018,10,21,02,06,5.70
2018,10,21,02,07,5.70
2018,10,21,02,08,5.60
2018,10,21,02,09,5.60
2018,10,21,02,10,5.60
2018,10,21,02,11,5.60
2018,10,21,02,12,5.60
2018,10,21,02,13,5.60
2018,10,21,02,14,5.60
2018,10,21,02,15,5.70
2018,10,21,02,16,5.70
2018,10,21,02,17,5.70
2018,10,21,02,18,5.70
2018,10,21,02,19,5.70
2018,10,21,02,20,5.70
2018,10,21,02,21,5.70
2018,10,21,02,22,5.70
2018,10,21,02,23,5.70
2018,10,21,02,24,5.70
2018,10,21,02,25,5.70
2018,10,21,02,26,5.60
2018,10,21,02,27,5.60
2018,10,21,02,28,5.50
2018,10,21,02,29,5.50
2018,10,21,02,30,5.50
2018,10,21,02,31,5.40
2018,10,21,02,32,5.50
2018,10,21,02,33,5.50
2018,10,21,02,34,5.50
2018,10,21,02,35,5.50
2018,10,21,02,36,5.50
2018,10,21,02,37,5.50
2018,10,21,02,38,5.40
2018,10,21,02,39,5.40
2018,10,21,02,40,5.40
2018,10,21,02,41,5.40
2018,10,21,02,42,5.30
2018,10,21,02,43,5.30
2018,10,21,02,44,5.30
2018,10,21,02,45,5.30
2018,10,21,02,46,5.20
2018,10,21,02,47,5.20
2018,10,21,02,48,5.20
2018,10,21,02,49,5.20
2018,10,21,02,50,5.20
2018,10,21,02,51,5.10
2018,10,21,02,52,5.10
2018,10,21,02,53,5.10
2018,10,21,02,54,5.10
2018,10,21,02,55,5.10
2018,10,21,02,56,5.10
2018,10,21,02,57,5.10
2018,10,21,02,58,5.10
2018,10,21,02,59,5.10
2018,10,21,03,00,5.10
2018,10,21,03,01,5.10
2018,10,21,03,02,5.10
2018,10,21,03,03,5.10
2018,10,21,03,04,5.10
2018,10,21,03,05,5.10
2018,10,21,03,06,5.10
2018,10,21,03,07,5.10
2018,10,21,03,08,5.10
2018,10,21,03,09,5.10
2018,10,21,03,10,5.10
2018,10,21,03,11,5.10
2018,10,21,03,12,5.10
2018,10,21,03,13,5.00
2018,10,21,03,14,4.90
2018,10,21,03,15,5.00
2018,10,21,03,16,5.10
2018,10,21,03,17,5.10
2018,10,21,03,18,5.10
2018,10,21,03,19,5.10
2018,10,21,03,20,5.10
2018,10,21,03,21,5.10
2018,10,21,03,22,5.10
2018,10,21,03,23,5.10
2018,10,21,03,24,5.10
2018,10,21,03,25,5.20
2018,10,21,03,26,5.20
2018,10,21,03,27,5.20
2018,10,21,03,28,5.20
2018,10,21,03,29,5.20
2018,10,21,03,30,5.20
2018,10,21,03,31,5.10
2018,10,21,03,32,5.10
2018,10,21,03,33,5.10
2018,10,21,03,34,5.10
2018,10,21,03,35,5.10
2018,10,21,03,36,5.00
2018,10,21,03,37,4.90
2018,10,21,03,38,4.90
2018,10,21,03,39,4.90
2018,10,21,03,40,4.90
2018,10,21,03,41,4.90
2018,10,21,03,42,4.90
2018,10,21,03,43,4.90
2018,10,21,03,44,4.80
2018,10,21,03,45,4.80
2018,10,21,03,46,4.80
2018,10,21,03,47,4.80
2018,10,21,03,48,4.80
2018,10,21,03,49,4.80
2018,10,21,03,50,4.80
2018,10,21,03,51,4.90
2018,10,21,03,52,4.90
2018,10,21,03,53,4.90
2018,10,21,03,54,4.90
2018,10,21,03,55,4.90
2018,10,21,03,56,4.90
2018,10,21,03,57,4.90
2018,10,21,03,58,4.90
2018,10,21,03,59,4.80
2018,10,21,04,00,4.80
2018,10,21,04,01,4.80
2018,10,21,04,02,4.80
2018,10,21,04,03,4.80
2018,10,21,04,04,4.70
2018,10,21,04,05,4.70
2018,10,21,04,06,4.70
2018,10,21,04,07,4.70
2018,10,21,04,08,4.70
2018,10,21,04,09,4.70
2018,10,21,04,10,4.80
2018,10,21,04,11,4.80
2018,10,21,04,12,4.80
2018,10,21,04,13,4.80
2018,10,21,04,14,4.90
2018,10,21,04,15,4.90
2018,10,21,04,16,4.90
2018,10,21,04,17,4.90
2018,10,21,04,18,4.90
2018,10,21,04,19,4.90
2018,10,21,04,20,4.90
2018,10,21,04,21,4.90
2018,10,21,04,22,4.90
2018,10,21,04,23,4.90
2018,10,21,04,24,4.90
2018,10,21,04,25,4.90
2018,10,21,04,26,4.90
2018,10,21,04,27,4.90
2018,10,21,04,28,4.90
2018,10,21,04,29,4.80
2018,10,21,04,30,4.80
2018,10,21,04,31,4.80
2018,10,21,04,32,4.80
2018,10,21,04,33,4.80
2018,10,21,04,34,4.80
2018,10,21,04,35,4.70
2018,10,21,04,36,4.70
2018,10,21,04,37,4.70
2018,10,21,04,38,4.70
2018,10,21,04,39,4.70
2018,10,21,04,40,4.70
2018,10,21,04,41,4.70
2018,10,21,04,42,4.70
2018,10,21,04,43,4.70
2018,10,21,04,44,4.70
2018,10,21,04,45,4.70
2018,10,21,04,46,4.70
2018,10,21,04,47,4.70
2018,10,21,04,48,4.70
2018,10,21,04,49,4.70
2018,10,21,04,50,4.70
2018,10,21,04,51,4.60
2018,10,21,04,52,4.60
2018,10,21,04,53,4.60
2018,10,21,04,54,4.50
2018,10,21,04,55,4.50
2018,10,21,04,56,4.50
2018,10,21,04,57,4.40
2018,10,21,04,58,4.40
2018,10,21,04,59,4.30
2018,10,21,05,00,4.30
2018,10,21,05,01,4.20
2018,10,21,05,02,4.20
2018,10,21,05,03,4.20
2018,10,21,05,04,4.20
2018,10,21,05,05,4.20
2018,10,21,05,06,4.20
2018,10,21,05,07,4.20
2018,10,21,05,08,4.20
2018,10,21,05,09,4.20
2018,10,21,05,10,4.20
2018,10,21,05,11,4.20
2018,10,21,05,12,4.30
2018,10,21,05,13,4.30
2018,10,21,05,14,4.30
2018,10,21,05,15,4.40
2018,10,21,05,16,4.40
2018,10,21,05,17,4.40
2018,10,21,05,18,4.40
2018,10,21,05,19,4.40
2018,10,21,05,20,4.40
2018,10,21,05,21,4.40
2018,10,21,05,22,4.40
2018,10,21,05,23,4.40
2018,10,21,05,24,4.40
2018,10,21,05,25,4.30
2018,10,21,05,26,4.30
2018,10,21,05,27,4.30
2018,10,21,05,28,4.20
2018,10,21,05,29,4.20
2018,10,21,05,30,4.20
2018,10,21,05,31,4.20
2018,10,21,05,32,4.10
2018,10,21,05,33,4.10
2018,10,21,05,34,4.10
2018,10,21,05,35,4.00
2018,10,21,05,36,4.00
2018,10,21,05,37,4.00
2018,10,21,05,38,4.00
2018,10,21,05,39,4.00
2018,10,21,05,40,4.00
2018,10,21,05,41,4.00
2018,10,21,05,42,4.00
2018,10,21,05,43,4.00
2018,10,21,05,44,3.90
2018,10,21,05,45,3.90
2018,10,21,05,46,3.90
2018,10,21,05,47,3.90
2018,10,21,05,48,4.00
2018,10,21,05,49,4.00
2018,10,21,05,50,4.00
2018,10,21,05,51,4.00
2018,10,21,05,52,4.00
2018,10,21,05,53,4.00
2018,10,21,05,54,4.00
2018,10,21,05,55,4.00
2018,10,21,05,56,4.00
2018,10,21,05,57,4.10
2018,10,21,05,58,4.10
2018,10,21,05,59,4.10
2018,10,21,06,00,4.10
2018,10,21,06,01,4.10
2018,10,21,06,02,4.10
2018,10,21,06,03,4.10
2018,10,21,06,04,4.10
2018,10,21,06,05,4.00
2018,10,21,06,06,4.00
2018,10,21,06,07,4.00
2018,10,21,06,08,3.90
2018,10,21,06,09,3.90
2018,10,21,06,10,3.90
2018,10,21,06,11,3.90
2018,10,21,06,12,3.90
2018,10,21,06,13,4.00
2018,10,21,06,14,3.90
2018,10,21,06,15,3.90
2018,10,21,06,16,3.90
2018,10,21,06,17,3.90
2018,10,21,06,18,3.90
2018,10,21,06,19,3.90
2018,10,21,06,20,3.80
2018,10,21,06,21,3.80
2018,10,21,06,22,3.80
2018,10,21,06,23,3.80
2018,10,21,06,24,3.80
2018,10,21,06,25,3.80
2018,10,21,06,26,3.80
2018,10,21,06,27,3.70
2018,10,21,06,28,3.70
2018,10,21,06,29,3.70
2018,10,21,06,30,3.60
2018,10,21,06,31,3.60
2018,10,21,06,32,3.60
2018,10,21,06,33,3.60
2018,10,21,06,34,3.60
2018,10,21,06,35,3.60
2018,10,21,06,36,3.60
2018,10,21,06,37,3.70
2018,10,21,06,38,3.70
2018,10,21,06,39,3.70
2018,10,21,06,40,3.70
2018,10,21,06,41,3.80
2018,10,21,06,42,3.80
2018,10,21,06,43,3.80
2018,10,21,06,44,3.80
2018,10,21,06,45,3.80
2018,10,21,06,46,3.70
2018,10,21,06,47,3.70
2018,10,21,06,48,3.70
2018,10,21,06,49,3.70
2018,10,21,06,50,3.70
2018,10,21,06,51,3.70
2018,10,21,06,52,3.60
2018,10,21,06,53,3.60
2018,10,21,06,54,3.60
2018,10,21,06,55,3.60
2018,10,21,06,56,3.50
2018,10,21,06,57,3.50
2018,10,21,06,58,3.50
2018,10,21,06,59,3.50
2018,10,21,07,00,3.50
2018,10,21,07,01,3.50
2018,10,21,07,02,3.50
2018,10,21,07,03,3.40
2018,10,21,07,04,3.40
2018,10,21,07,05,3.50
2018,10,21,07,06,3.50
2018,10,21,07,07,3.50
2018,10,21,07,08,3.50
2018,10,21,07,09,3.50
2018,10,21,07,10,3.50
2018,10,21,07,11,3.60
2018,10,21,07,12,3.60
2018,10,21,07,13,3.70
2018,10,21,07,14,3.70
2018,10,21,07,15,3.70
2018,10,21,07,16,3.80
2018,10,21,07,17,3.80
2018,10,21,07,18,3.80
2018,10,21,07,19,3.80
2018,10,21,07,20,3.80
2018,10,21,07,21,3.80
2018,10,21,07,22,3.80
2018,10,21,07,23,3.80
2018,10,21,07,24,3.80
2018,10,21,07,25,3.80
2018,10,21,07,26,3.80
2018,10,21,07,27,3.80
2018,10,21,07,28,3.80
2018,10,21,07,29,3.80
2018,10,21,07,30,3.80
2018,10,21,07,31,3.80
2018,10,21,07,32,3.80
2018,10,21,07,33,3.80
2018,10,21,07,34,3.80
2018,10,21,07,35,3.90
2018,10,21,07,36,3.90
2018,10,21,07,37,4.00
2018,10,21,07,38,4.00
2018,10,21,07,39,4.00
2018,10,21,07,40,4.10
2018,10,21,07,41,4.10
2018,10,21,07,42,4.20
2018,10,21,07,43,4.20
2018,10,21,07,44,4.20
2018,10,21,07,45,4.20
2018,10,21,07,46,4.20
2018,10,21,07,47,4.20
2018,10,21,07,48,4.20
2018,10,21,07,49,4.20
2018,10,21,07,50,4.20
2018,10,21,07,51,4.20
2018,10,21,07,52,4.20
2018,10,21,07,53,4.20
2018,10,21,07,54,4.20
2018,10,21,07,55,4.10
2018,10,21,07,56,4.10
2018,10,21,07,57,4.10
2018,10,21,07,58,4.10
2018,10,21,07,59,4.10
2018,10,21,08,00,4.10
2018,10,21,08,01,4.00
2018,10,21,08,02,4.00
2018,10,21,08,03,4.00
2018,10,21,08,04,4.00
2018,10,21,08,05,4.00
2018,10,21,08,06,4.00
2018,10,21,08,07,4.00
2018,10,21,08,08,4.00
2018,10,21,08,09,4.00
2018,10,21,08,10,4.00
2018,10,21,08,11,4.10
2018,10,21,08,12,4.10
2018,10,21,08,13,4.10
2018,10,21,08,14,4.10
2018,10,21,08,15,4.10
2018,10,21,08,16,4.10
2018,10,21,08,17,4.10
2018,10,21,08,18,4.10
2018,10,21,08,19,4.10
2018,10,21,08,20,4.10
2018,10,21,08,21,4.10
2018,10,21,08,22,4.10
2018,10,21,08,23,4.10
2018,10,21,08,24,4.10
2018,10,21,08,25,4.10
2018,10,21,08,26,4.10
2018,10,21,08,27,4.10
2018,10,21,08,28,4.10
2018,10,21,08,29,4.20
2018,10,21,08,30,4.20
2018,10,21,08,31,4.20
2018,10,21,08,32,4.30
2018,10,21,08,33,4.30
2018,10,21,08,34,4.40
2018,10,21,08,35,4.40
2018,10,21,08,36,4.50
2018,10,21,08,37,4.50
2018,10,21,08,38,4.50
2018,10,21,08,39,4.60
2018,10,21,08,40,4.60
2018,10,21,08,41,4.60
2018,10,21,08,42,4.60
2018,10,21,08,43,4.70
2018,10,21,08,44,4.70
2018,10,21,08,45,4.70
2018,10,21,08,46,4.80
2018,10,21,08,47,4.90
2018,10,21,08,48,4.90
2018,10,21,08,49,5.00
2018,10,21,08,50,5.10
2018,10,21,08,51,5.10
2018,10,21,08,52,5.30
2018,10,21,08,53,5.30
2018,10,21,08,54,5.40
2018,10,21,08,55,5.40
2018,10,21,08,56,5.50
2018,10,21,08,57,5.60
2018,10,21,08,58,5.70
2018,10,21,08,59,5.70
2018,10,21,09,00,5.80
2018,10,21,09,01,5.90
2018,10,21,09,02,5.90
2018,10,21,09,03,6.00
2018,10,21,09,04,6.00
2018,10,21,09,05,6.00
2018,10,21,09,06,6.10
2018,10,21,09,07,6.20
2018,10,21,09,08,6.20
2018,10,21,09,09,6.20
2018,10,21,09,10,6.30
2018,10,21,09,11,6.30
2018,10,21,09,12,6.40
2018,10,21,09,13,6.40
2018,10,21,09,14,6.50
2018,10,21,09,15,6.60
2018,10,21,09,16,6.60
2018,10,21,09,17,6.70
2018,10,21,09,18,6.70
2018,10,21,09,19,6.80
2018,10,21,09,20,6.80
2018,10,21,09,21,6.90
2018,10,21,09,22,7.00
2018,10,21,09,23,7.00
2018,10,21,09,24,7.10
2018,10,21,09,25,7.10
2018,10,21,09,26,7.20
2018,10,21,09,27,7.30
2018,10,21,09,28,7.30
2018,10,21,09,29,7.40
2018,10,21,09,30,7.50
2018,10,21,09,31,7.60
2018,10,21,09,32,7.70
2018,10,21,09,33,7.80
2018,10,21,09,34,7.80
2018,10,21,09,35,7.90
2018,10,21,09,36,7.90
2018,10,21,09,37,7.90
2018,10,21,09,38,7.90
2018,10,21,09,39,7.90
2018,10,21,09,40,8.00
2018,10,21,09,41,8.10
2018,10,21,09,42,8.10
2018,10,21,09,43,8.10
2018,10,21,09,44,8.20
2018,10,21,09,45,8.20
2018,10,21,09,46,8.20
2018,10,21,09,47,8.20
2018,10,21,09,48,8.20
2018,10,21,09,49,8.40
2018,10,21,09,50,8.50
2018,10,21,09,51,8.70
2018,10,21,09,52,8.70
2018,10,21,09,53,8.80
2018,10,21,09,54,8.80
2018,10,21,09,55,8.80
2018,10,21,09,56,8.80
2018,10,21,09,57,8.80
2018,10,21,09,58,8.80
2018,10,21,09,59,8.90
2018,10,21,10,00,8.90
2018,10,21,10,01,8.90
2018,10,21,10,02,9.00
2018,10,21,10,03,9.10
2018,10,21,10,04,9.20
2018,10,21,10,05,9.20
2018,10,21,10,06,9.20
2018,10,21,10,07,9.30
2018,10,21,10,08,9.30
2018,10,21,10,09,9.40
2018,10,21,10,10,9.50
2018,10,21,10,11,9.60
2018,10,21,10,12,9.70
2018,10,21,10,13,9.80
2018,10,21,10,14,9.90
2018,10,21,10,15,9.90
2018,10,21,10,16,10.00
2018,10,21,10,17,10.10
2018,10,21,10,18,10.20
2018,10,21,10,19,10.30
2018,10,21,10,20,10.30
2018,10,21,10,21,10.40
2018,10,21,10,22,10.40
2018,10,21,10,23,10.60
2018,10,21,10,24,10.60
2018,10,21,10,25,10.60
2018,10,21,10,26,10.60
2018,10,21,10,27,10.60
2018,10,21,10,28,10.70
2018,10,21,10,29,10.80
2018,10,21,10,30,10.90
2018,10,21,10,31,10.90
2018,10,21,10,32,11.00
2018,10,21,10,33,11.10
2018,10,21,10,34,11.10
2018,10,21,10,35,11.10
2018,10,21,10,36,11.10
2018,10,21,10,37,11.20
2018,10,21,10,38,11.20
2018,10,21,10,39,11.30
2018,10,21,10,40,11.30
2018,10,21,10,41,11.40
2018,10,21,10,42,11.40
2018,10,21,10,43,11.40
2018,10,21,10,44,11.40
2018,10,21,10,45,11.40
2018,10,21,10,46,11.40
2018,10,21,10,47,11.40
2018,10,21,10,48,11.50
2018,10,21,10,49,11.60
2018,10,21,10,50,11.70
2018,10,21,10,51,11.80
2018,10,21,10,52,11.90
2018,10,21,10,53,12.00
2018,10,21,10,54,12.10
2018,10,21,10,55,12.10
2018,10,21,10,56,12.20
2018,10,21,10,57,12.20
2018,10,21,10,58,12.30
2018,10,21,10,59,12.30
2018,10,21,11,00,12.40
2018,10,21,11,01,12.50
2018,10,21,11,02,12.60
2018,10,21,11,03,12.70
2018,10,21,11,04,12.80
2018,10,21,11,05,13.00
2018,10,21,11,06,13.10
2018,10,21,11,07,13.20
2018,10,21,11,08,13.30
2018,10,21,11,09,13.30
2018,10,21,11,10,13.40
2018,10,21,11,11,13.40
2018,10,21,11,12,13.50
2018,10,21,11,13,13.50
2018,10,21,11,14,13.60
2018,10,21,11,15,13.60
2018,10,21,11,16,13.60
2018,10,21,11,17,13.60
2018,10,21,11,18,13.70
2018,10,21,11,19,13.70
2018,10,21,11,20,13.80
2018,10,21,11,21,13.80
2018,10,21,11,22,13.80
2018,10,21,11,23,13.80
2018,10,21,11,24,13.80
2018,10,21,11,25,13.80
2018,10,21,11,26,13.80
2018,10,21,11,27,13.70
2018,10,21,11,28,13.80
2018,10,21,11,29,13.90
2018,10,21,11,30,13.90
2018,10,21,11,31,13.90
2018,10,21,11,32,14.00
2018,10,21,11,33,14.10
2018,10,21,11,34,14.20
2018,10,21,11,35,14.30
2018,10,21,11,36,14.30
2018,10,21,11,37,14.40
2018,10,21,11,38,14.30
2018,10,21,11,39,14.40
2018,10,21,11,40,14.40
2018,10,21,11,41,14.50
2018,10,21,11,42,14.60
2018,10,21,11,43,14.60
2018,10,21,11,44,14.70
2018,10,21,11,45,14.70
2018,10,21,11,46,14.70
2018,10,21,11,47,14.80
2018,10,21,11,48,14.80
2018,10,21,11,49,14.70
2018,10,21,11,50,14.70
2018,10,21,11,51,14.60
2018,10,21,11,52,14.60
2018,10,21,11,53,14.60
2018,10,21,11,54,14.70
2018,10,21,11,55,14.70
2018,10,21,11,56,14.80
2018,10,21,11,57,14.80
2018,10,21,11,58,14.80
2018,10,21,11,59,14.80
2018,10,21,12,00,14.80
2018,10,21,12,01,14.80
2018,10,21,12,02,14.80
2018,10,21,12,03,14.80
2018,10,21,12,04,14.80
2018,10,21,12,05,14.80
2018,10,21,12,06,14.80
2018,10,21,12,07,14.80
2018,10,21,12,08,14.80
2018,10,21,12,09,14.80
2018,10,21,12,10,14.80
2018,10,21,12,11,14.80
2018,10,21,12,12,14.80
2018,10,21,12,13,14.80
2018,10,21,12,14,14.80
2018,10,21,12,15,14.80
2018,10,21,12,16,14.80
2018,10,21,12,17,14.80
2018,10,21,12,18,14.80
2018,10,21,12,19,14.80
2018,10,21,12,20,14.80
2018,10,21,12,21,14.80
2018,10,21,12,22,14.80
2018,10,21,12,23,14.80
2018,10,21,12,24,14.80
2018,10,21,12,25,14.80
2018,10,21,12,26,14.90
2018,10,21,12,27,14.90
2018,10,21,12,28,15.00
2018,10,21,12,29,15.10
2018,10,21,12,30,15.10
2018,10,21,12,31,15.20
2018,10,21,12,32,15.20
2018,10,21,12,33,15.20
2018,10,21,12,34,15.30
2018,10,21,12,35,15.30
2018,10,21,12,36,15.40
2018,10,21,12,37,15.40
2018,10,21,12,38,15.40
2018,10,21,12,39,15.40
2018,10,21,12,40,15.40
2018,10,21,12,41,15.40
2018,10,21,12,42,15.40
2018,10,21,12,43,15.40
2018,10,21,12,44,15.50
2018,10,21,12,45,15.60
2018,10,21,12,46,15.60
2018,10,21,12,47,15.80
2018,10,21,12,48,15.90
2018,10,21,12,49,16.00
2018,10,21,12,50,16.10
2018,10,21,12,51,16.10
2018,10,21,12,52,16.10
2018,10,21,12,53,16.10
2018,10,21,12,54,16.00
2018,10,21,12,55,15.90
2018,10,21,12,56,15.90
2018,10,21,12,57,16.00
2018,10,21,12,58,16.10
2018,10,21,12,59,16.10
2018,10,21,13,00,16.20
2018,10,21,13,01,16.30
2018,10,21,13,02,16.40
2018,10,21,13,03,16.60
2018,10,21,13,04,16.70
2018,10,21,13,05,16.90
2018,10,21,13,06,17.00
2018,10,21,13,07,17.00
2018,10,21,13,08,17.10
2018,10,21,13,09,17.10
2018,10,21,13,10,17.00
2018,10,21,13,11,17.00
2018,10,21,13,12,16.90
2018,10,21,13,13,16.90
2018,10,21,13,14,16.80
2018,10,21,13,15,16.70
2018,10,21,13,16,16.70
2018,10,21,13,17,16.70
2018,10,21,13,18,16.70
2018,10,21,13,19,16.80
2018,10,21,13,20,16.80
2018,10,21,13,21,16.80
2018,10,21,13,22,16.70
2018,10,21,13,23,16.70
2018,10,21,13,24,16.60
2018,10,21,13,25,16.50
2018,10,21,13,26,16.40
2018,10,21,13,27,16.40
2018,10,21,13,28,16.40
2018,10,21,13,29,16.40
2018,10,21,13,30,16.30
2018,10,21,13,31,16.20
2018,10,21,13,32,16.20
2018,10,21,13,33,16.10
2018,10,21,13,34,16.10
2018,10,21,13,35,16.10
2018,10,21,13,36,16.10
2018,10,21,13,37,16.10
2018,10,21,13,38,16.10
2018,10,21,13,39,16.10
2018,10,21,13,40,16.00
2018,10,21,13,41,15.90
2018,10,21,13,42,15.90
2018,10,21,13,43,15.80
2018,10,21,13,44,15.80
2018,10,21,13,45,15.80
2018,10,21,13,46,15.80
2018,10,21,13,47,15.60
2018,10,21,13,48,15.50
2018,10,21,13,49,15.40
2018,10,21,13,50,15.30
2018,10,21,13,51,15.30
2018,10,21,13,52,15.20
2018,10,21,13,53,15.20
2018,10,21,13,54,15.10
2018,10,21,13,55,15.10
2018,10,21,13,56,15.10
2018,10,21,13,57,15.10
2018,10,21,13,58,15.10
2018,10,21,13,59,15.10
2018,10,21,14,00,15.00
2018,10,21,14,01,15.00
2018,10,21,14,02,14.90
2018,10,21,14,03,14.90
2018,10,21,14,04,14.90
2018,10,21,14,05,14.80
2018,10,21,14,06,14.80
2018,10,21,14,07,14.80
2018,10,21,14,08,14.80
2018,10,21,14,09,14.80
2018,10,21,14,10,14.80
2018,10,21,14,11,14.80
2018,10,21,14,12,14.80
2018,10,21,14,13,14.80
2018,10,21,14,14,14.80
2018,10,21,14,15,14.80
2018,10,21,14,16,14.70
2018,10,21,14,17,14.70
2018,10,21,14,18,14.70
2018,10,21,14,19,14.80
2018,10,21,14,20,14.80
2018,10,21,14,21,14.80
2018,10,21,14,22,14.90
2018,10,21,14,23,14.90
2018,10,21,14,24,14.90
2018,10,21,14,25,14.90
2018,10,21,14,26,14.80
2018,10,21,14,27,14.80
2018,10,21,14,28,14.80
2018,10,21,14,29,14.80
2018,10,21,14,30,14.80
2018,10,21,14,31,14.80
2018,10,21,14,32,14.80
2018,10,21,14,33,14.90
2018,10,21,14,34,14.90
2018,10,21,14,35,14.90
2018,10,21,14,36,15.00
2018,10,21,14,37,15.00
2018,10,21,14,38,15.00
2018,10,21,14,39,15.00
2018,10,21,14,40,14.90
2018,10,21,14,41,14.90
2018,10,21,14,42,14.90
2018,10,21,14,43,14.90
2018,10,21,14,44,14.90
2018,10,21,14,45,15.00
2018,10,21,14,46,15.00
2018,10,21,14,47,15.00
2018,10,21,14,48,15.00
2018,10,21,14,49,15.10
2018,10,21,14,50,15.10
2018,10,21,14,51,15.10
2018,10,21,14,52,15.10
2018,10,21,14,53,15.20
2018,10,21,14,54,15.20
2018,10,21,14,55,15.20
2018,10,21,14,56,15.20
2018,10,21,14,57,15.20
2018,10,21,14,58,15.30
2018,10,21,14,59,15.30
2018,10,21,15,00,15.40
2018,10,21,15,01,15.40
2018,10,21,15,02,15.50
2018,10,21,15,03,15.50
2018,10,21,15,04,15.60
2018,10,21,15,05,15.80
2018,10,21,15,06,15.80
2018,10,21,15,07,15.80
2018,10,21,15,08,15.80
2018,10,21,15,09,15.80
2018,10,21,15,10,15.80
2018,10,21,15,11,15.80
2018,10,21,15,12,15.80
2018,10,21,15,13,15.70
2018,10,21,15,14,15.70
2018,10,21,15,15,15.80
2018,10,21,15,16,15.80
2018,10,21,15,17,15.80
2018,10,21,15,18,15.80
2018,10,21,15,19,15.80
2018,10,21,15,20,15.80
2018,10,21,15,21,15.80
2018,10,21,15,22,15.80
2018,10,21,15,23,15.90
2018,10,21,15,24,15.90
2018,10,21,15,25,15.90
2018,10,21,15,26,15.90
2018,10,21,15,27,15.90
2018,10,21,15,28,15.80
2018,10,21,15,29,15.80
2018,10,21,15,30,15.80
2018,10,21,15,31,15.80
2018,10,21,15,32,15.80
2018,10,21,15,33,15.70
2018,10,21,15,34,15.60
2018,10,21,15,35,15.60
2018,10,21,15,36,15.60
2018,10,21,15,37,15.50
2018,10,21,15,38,15.50
2018,10,21,15,39,15.50
2018,10,21,15,40,15.50
2018,10,21,15,41,15.50
2018,10,21,15,42,15.50
2018,10,21,15,43,15.50
2018,10,21,15,44,15.50
2018,10,21,15,45,15.50
2018,10,21,15,46,15.40
2018,10,21,15,47,15.50
2018,10,21,15,48,15.40
2018,10,21,15,49,15.40
2018,10,21,15,50,15.40
2018,10,21,15,51,15.40
2018,10,21,15,52,15.40
2018,10,21,15,53,15.30
2018,10,21,15,54,15.30
2018,10,21,15,55,15.30
2018,10,21,15,56,15.30
2018,10,21,15,57,15.30
2018,10,21,15,58,15.30
2018,10,21,15,59,15.30
2018,10,21,16,00,15.30
2018,10,21,16,01,15.30
2018,10,21,16,02,15.20
2018,10,21,16,03,15.20
2018,10,21,16,04,15.20
2018,10,21,16,05,15.20
2018,10,21,16,06,15.20
2018,10,21,16,07,15.20
2018,10,21,16,08,15.20
2018,10,21,16,09,15.10
2018,10,21,16,10,15.10
2018,10,21,16,11,15.10
2018,10,21,16,12,15.10
2018,10,21,16,13,15.00
2018,10,21,16,14,15.00
2018,10,21,16,15,14.90
2018,10,21,16,16,14.90
2018,10,21,16,17,14.80
2018,10,21,16,18,14.80
2018,10,21,16,19,14.80
2018,10,21,16,20,14.80
2018,10,21,16,21,14.70
2018,10,21,16,22,14.70
2018,10,21,16,23,14.70
2018,10,21,16,24,14.60
2018,10,21,16,25,14.60
2018,10,21,16,26,14.60
2018,10,21,16,27,14.60
2018,10,21,16,28,14.50
2018,10,21,16,29,14.50
2018,10,21,16,30,14.40
2018,10,21,16,31,14.40
2018,10,21,16,32,14.40
2018,10,21,16,33,14.40
2018,10,21,16,34,14.40
2018,10,21,16,35,14.40
2018,10,21,16,36,14.40
2018,10,21,16,37,14.40
2018,10,21,16,38,14.30
2018,10,21,16,39,14.30
2018,10,21,16,40,14.30
2018,10,21,16,41,14.20
2018,10,21,16,42,14.20
2018,10,21,16,43,14.20
2018,10,21,16,44,14.20
2018,10,21,16,45,14.20
2018,10,21,16,46,14.20
2018,10,21,16,47,14.20
2018,10,21,16,48,14.20
2018,10,21,16,49,14.20
2018,10,21,16,50,14.20
2018,10,21,16,51,14.20
2018,10,21,16,52,14.20
2018,10,21,16,53,14.20
2018,10,21,16,54,14.20
2018,10,21,16,55,14.20
2018,10,21,16,56,14.20
2018,10,21,16,57,14.10
2018,10,21,16,58,14.10
2018,10,21,16,59,14.10
2018,10,21,17,00,14.10
2018,10,21,17,01,14.10
2018,10,21,17,02,14.10
2018,10,21,17,03,14.00
2018,10,21,17,04,14.10
2018,10,21,17,05,14.10
2018,10,21,17,06,14.10
2018,10,21,17,07,14.10
2018,10,21,17,08,14.10
2018,10,21,17,09,14.10
2018,10,21,17,10,14.00
2018,10,21,17,11,14.00
2018,10,21,17,12,14.00
2018,10,21,17,13,14.00
2018,10,21,17,14,14.00
2018,10,21,17,15,14.00
2018,10,21,17,16,14.00
2018,10,21,17,17,13.90
2018,10,21,17,18,13.90
2018,10,21,17,19,13.90
2018,10,21,17,20,13.90
2018,10,21,17,21,13.90
2018,10,21,17,22,13.80
2018,10,21,17,23,13.80
2018,10,21,17,24,13.80
2018,10,21,17,25,13.70
2018,10,21,17,26,13.70
2018,10,21,17,27,13.70
2018,10,21,17,28,13.70
2018,10,21,17,29,13.70
2018,10,21,17,30,13.70
2018,10,21,17,31,13.60
2018,10,21,17,32,13.60
2018,10,21,17,33,13.50
2018,10,21,17,34,13.50
2018,10,21,17,35,13.40
2018,10,21,17,36,13.30
2018,10,21,17,37,13.30
2018,10,21,17,38,13.30
2018,10,21,17,39,13.20
2018,10,21,17,40,13.20
2018,10,21,17,41,13.10
2018,10,21,17,42,13.10
2018,10,21,17,43,13.10
2018,10,21,17,44,13.10
2018,10,21,17,45,13.00
2018,10,21,17,46,13.00